Location: Corsier
(46.2637°N, 6.2238°E)
Time: 10:55:31
(UTC+00:00)

Daily predictions for brighter satellites

Satellite Brightness Start Highest point End
(mag) Time Altitude Azimuth Time Altitude Azimuth Time Altitude Azimuth
Cosmos 1980 Rocket 3.5 19:57:28 10° N 20:02:26 29° NE 20:07:20 10° ESE
Resurs 01 Rocket 2.0 20:12:18 10° S 20:16:44 68° WSW 20:21:11 10° NNW
COSMOS 2406 3.8 20:14:38 10° S 20:19:54 39° ESE 20:25:12 10° NE
Cosmos 2184 Rocket 4.0 20:18:05 10° N 20:24:17 70° E 20:30:29 10° SSE
Cosmos 1833 Rocket 2.7 20:19:52 10° SSW 20:25:26 71° ESE 20:31:03 10° NNE
H-2A R/B 2.7 20:22:02 10° N 20:26:27 62° WNW 20:30:53 10° SSW
Cosmos 1867 4.3 20:24:15 10° NNW 20:29:30 44° NE 20:34:38 10° ESE
Cosmos 1536 Rocket 3.6 20:26:59 10° S 20:31:18 85° W 20:35:42 10° N
Cosmos 1703 3.1 20:28:37 10° S 20:32:27 78° E 20:36:19 10° NNE
CARTOSAT-1 3.6 20:29:40 10° SSE 20:33:58 90° SSW 20:38:19 10° NNW
Cosmos 1741 Rocket 4.3 20:29:10 10° NNW 20:34:29 71° WSW 20:39:47 10° SSE
USA 245 3.0 20:32:00 10° SSE 20:35:52 71° ENE 20:39:01 10° N
Cosmos 1606 Rocket 4.0 20:32:02 10° N 20:36:13 45° ENE 20:39:50 13° SSE
Ariane Rocket 3.4 20:32:59 10° S 20:38:02 64° WSW 20:43:08 10° NNW
Cosmos 2322 Rocket 4.4 20:35:21 10° N 20:38:29 15° NE 20:41:38 10° ENE
CZ-4B R/B 2.5 20:43:21 10° N 20:46:04 38° WNW 20:48:47 10° SW
ARIANE 5 R/B 3.6 20:44:14 14° SE 20:47:30 33° ENE 20:51:28 10° N
Terra 2.3 20:44:04 14° SE 20:47:53 47° ENE 20:52:27 10° N
ATLAS 2AS CENTAUR R/B 4.4 20:44:02 10° WNW 20:49:28 25° WSW 20:54:39 10° SSW
SPOT 3 Rocket 3.7 20:44:25 10° S 20:49:37 78° WSW 20:54:53 10° NNW
SPOT 5 2.6 20:46:56 14° SSE 20:50:36 70° ENE 20:54:55 10° N
RESURS DK-1 3.7 20:49:19 10° NW 20:53:02 33° WSW 20:56:45 10° S
USA 276 3.1 20:50:37 10° WNW 20:53:31 42° N 20:56:26 10° E
FALCON 9 DEB 4.0 20:51:54 10° NW 20:55:01 41° NNE 20:58:00 11° E
Cosmos 1726 Rocket 3.7 20:53:53 10° N 20:58:09 59° ENE 21:01:15 18° SSE
Cosmos 1331 Rocket 4.4 20:57:15 10° SSW 21:02:31 68° WNW 21:07:50 10° NNE
Cosmos 2082 Rocket 2.3 20:58:00 10° S 21:03:37 60° ESE 21:09:13 10° NNE
Cosmos 2327 Rocket 4.5 20:58:10 10° N 21:04:30 83° E 21:09:49 15° S
Helios 1A Rocket 2.9 21:04:55 17° SSE 21:07:58 85° WSW 21:12:06 10° NNW
Spot 2 Rocket 3.6 21:04:02 15° S 21:08:21 80° WSW 21:13:31 10° NNW
Cosmos 1328 3.7 21:05:03 12° S 21:08:44 86° E 21:12:45 10° N
ASTEX 1 4.3 21:04:30 10° NNE 21:08:59 32° E 21:11:40 20° SE
Cosmos 2084 Rocket 3.7 21:07:36 10° NW 21:11:26 52° SW 21:13:53 21° SSE
Cosmos 2360 Rocket 4.4 21:09:35 10° N 21:13:13 17° NE 21:16:49 10° E
Nadezhda 1 Rocket 4.0 21:08:00 10° SSW 21:14:03 79° W 21:20:10 10° N
Cosmos 2181 Rocket 4.5 21:17:08 19° SSE 21:21:07 44° E 21:26:58 10° NNE
X-37B 2.2 21:23:38 10° WSW 21:25:27 18° SSW 21:25:27 18° SSW
ERS-1 Rocket 3.3 21:22:07 17° S 21:25:58 64° WSW 21:31:00 10° NNW
Cosmos 1892 2.7 21:26:27 27° SSE 21:28:14 59° E 21:31:59 10° NNE
Cosmos 1302 Rocket 4.2 21:29:26 10° SSW 21:34:37 72° WNW 21:39:50 10° NNE
Cosmos 1892 Rocket 3.9 21:38:01 16° SSW 21:41:30 65° W 21:45:52 10° N
ASTRO F (AKARI) 4.5 21:40:19 34° S 21:41:44 78° WSW 21:45:14 10° NNW
Cosmos 968 Rocket 3.9 21:38:14 10° NNW 21:43:20 55° WSW 21:46:30 23° S
Cosmos 1697 Rocket 4.2 21:41:04 10° NW 21:45:44 27° WSW 21:49:50 12° SSW
Cosmos 1980 Rocket 2.7 21:41:12 10° NW 21:46:44 53° WSW 21:50:07 23° S
SL-16 R/B 2.8 21:44:05 10° NNW 21:49:37 49° ENE 21:52:57 23° ESE
Cosmos 1408 2.9 21:48:44 24° SSW 21:50:34 56° WNW 21:53:58 10° N
Cosmos 2058 Rocket 3.3 21:46:36 10° NNW 21:51:00 66° W 21:53:20 27° S
Cosmos 1626 Rocket 3.7 21:50:06 33° SSE 21:51:44 54° E 21:56:00 10° NNE
ATLAS 5 CENTAUR R/B 1.1 21:50:51 15° SW 21:53:48 88° SE 21:57:58 10° NE
SL-8 Rocket 4.0 21:48:00 10° N 21:54:15 86° W 21:58:01 25° S
USA 267 3.6 21:48:42 10° ENE 21:54:51 42° SE 21:59:30 17° SSW
SJ 16-02 2.4 21:57:37 10° N 22:01:44 36° ENE 22:03:35 25° ESE
In-Cosmos 22 Rocket 4.1 21:59:05 23° SSW 22:02:40 87° W 22:08:07 10° N
SL-4 R/B 3.4 22:04:44 20° E 22:04:44 20° E 22:06:07 10° ENE
CSL-04 DEB 4.5 21:59:31 10° NNE 22:03:54 82° ESE 22:05:49 33° S
Cosmos 1825 2.1 22:08:00 40° SSW 22:09:14 81° W 22:13:00 10° N
Cosmos 2366 rocket 4.1 22:08:17 10° NNW 22:14:37 73° W 22:18:15 27° S
Cosmos 1869 3.4 22:13:24 10° NNW 22:17:17 66° W 22:18:25 42° SSW
Cosmos 2218 Rocket 4.3 22:14:43 10° NNW 22:21:04 66° W 22:24:43 27° SSW
Cosmos 2322 Rocket 2.4 22:18:03 10° NNW 22:23:43 64° ENE 22:26:28 31° SE
ARIANE 5 R/B 4.2 22:21:46 18° SW 22:23:58 27° W 22:27:46 10° NW
GP-B 3.9 22:19:58 10° N 22:24:13 45° W 22:26:27 25° SW
Terra 3.7 22:22:57 13° SW 22:25:52 22° W 22:29:33 10° NW
SAR-Lupe-4 4.3 22:24:49 10° N 22:28:18 49° WNW 22:29:35 32° SW
USA 276 2.6 22:26:22 10° WNW 22:28:42 46° W 22:28:42 46° W
USA 234 3.8 22:23:04 10° ESE 22:29:27 57° NNE 22:35:50 10° NW
FALCON 9 DEB 4.2 22:28:13 10° WNW 22:30:31 31° WSW 22:30:31 31° WSW
BREEZE-M DEB (TANK) 3.9 22:33:37 10° WNW 22:36:52 74° NNE 22:49:24 10° ESE
Cosmos 1633 2.5 22:39:00 58° SW 22:39:27 67° W 22:42:55 10° N
Cosmos 1758 Rocket 3.5 22:42:24 47° SSW 22:43:37 84° W 22:48:03 10° N
Cosmos 1238 4.5 22:44:13 61° E 22:44:13 61° E 22:47:37 10° NNE
Cosmos 2333 Rocket 3.2 22:39:08 10° NNW 22:44:34 40° NE 22:48:05 20° ESE
Cosmos 2082 Rocket 4.2 22:43:21 10° WSW 22:48:06 27° NW 22:52:54 10° N
Cosmos 1606 2.5 22:50:02 10° N 22:53:53 85° W 22:54:21 68° S
Cosmos-2242 3.1 22:50:04 10° NNW 22:54:16 63° W 22:55:10 49° SSW
Cosmos 1812 Rocket 4.1 22:50:41 10° NNW 22:54:59 50° W 22:56:09 39° SW
ADEOS Rocket 3.5 22:53:13 32° SSE 22:57:08 83° ENE 23:04:57 10° NNW
ISS -1.3 23:00:48 14° ENE 23:00:48 14° ENE 23:01:21 10° ENE
Cosmos 2360 Rocket 2.2 22:52:30 10° NNW 22:58:13 77° ENE 23:00:31 37° SE
Cosmos 1340 Rocket 3.0 22:58:42 51° ESE 22:58:57 53° E 23:02:50 10° NNE
Gbstr 26 Del rocket 2.9 22:59:00 44° SW 23:00:16 74° SSE 23:05:16 10° ENE
Cosmos 375 4.4 23:05:37 59° S 23:06:15 72° SE 23:11:06 10° NE
Cosmos 1821 Rocket 4.3 23:02:40 10° NNW 23:08:46 58° W 23:11:22 33° SSW
BREEZE-M DEB (TANK) 3.7 23:12:24 32° E 23:12:24 32° E 23:15:29 10° ENE
SL-27 R/B 3.9 23:13:18 26° ENE 23:13:18 26° ENE 23:15:23 10° NE
NOSS 3-2 (A) 4.4 23:13:40 25° ESE 23:14:13 25° ESE 23:19:00 10° ENE
Meteor 2-11 Rocket 4.5 23:08:48 10° N 23:14:56 72° ENE 23:17:23 38° SSE
Cosmos 44 3.0 23:14:09 56° S 23:14:58 72° SE 23:19:27 10° NE
Cosmos 1833 4.1 23:14:26 43° S 23:16:14 71° ESE 23:21:49 10° NNE
Cosmos 972 Rocket 4.1 23:11:20 10° NNW 23:16:37 82° ENE 23:18:42 41° SSE
Cosmos 1782 4.4 23:18:01 10° NNE 23:21:22 25° ENE 23:22:20 23° E
ALOS 2 2.9 23:21:37 48° SW 23:22:22 55° W 23:26:42 10° NNW
ERS-2 2.2 23:19:29 10° NNE 23:22:56 61° E 23:22:56 61° E
CENTAUR R/B 3.4 23:22:31 27° SE 23:23:34 29° ESE 23:29:09 10° NE
Cosmos 2237 Rocket 4.5 23:20:02 10° N 23:24:04 20° NE 23:28:05 10° E
Cosmos 1605 Rocket 4.2 23:19:15 10° N 23:25:38 65° ENE 23:28:27 34° SSE
Cosmos 2297 Rocket 4.4 23:29:19 10° ESE 23:30:49 11° E 23:32:32 10° ENE
Cosmos 2058 3.5 23:29:58 40° WSW 23:30:53 48° WNW 23:34:57 10° N
COSMOS 2428 3.5 23:25:31 10° NNW 23:31:01 46° NE 23:34:37 21° ESE
H-2A R/B 4.1 23:27:36 10° N 23:31:40 49° WNW 23:32:48 38° WSW
Cosmos 2151 4.1 23:31:03 29° ESE 23:31:41 31° E 23:35:28 10° NNE
SL-16 R/B 3.4 23:28:41 10° NW 23:33:26 28° WSW 23:34:48 25° SW
Cosmos 1953 Rocket 3.7 23:33:03 52° SW 23:33:59 69° W 23:38:24 10° N
Cosmos 2219 Rocket 2.4 23:28:20 10° NNW 23:34:00 66° ENE 23:36:41 32° SE
USA 267 3.5 23:31:36 10° NE 23:38:06 70° NNW 23:44:36 10° WSW
ATLAS 5 CENTAUR R/B 4.2 23:36:19 10° WNW 23:39:02 17° NNW 23:42:01 10° NNE
SJ 16-02 2.8 23:36:30 10° NW 23:40:06 25° W 23:40:31 24° WSW
SL-4 R/B 2.4 23:40:05 21° W 23:42:09 51° NNW 23:45:47 10° ENE
Cosmos 2322 3.8 23:37:28 10° NNW 23:43:10 71° ENE 23:45:45 33° SE
Cosmos 1898 Rocket 4.2 23:39:27 10° NNW 23:44:29 48° ENE 23:47:02 27° ESE
COSMOS 2455 4.4 23:46:09 10° NNW 23:51:35 33° NE 23:56:59 10° ESE
Cosmos 2221 2.6 23:47:15 10° NNW 23:51:35 64° W 23:52:14 55° SW
PSLV R/B 3.7 23:49:41 10° NNE 23:54:27 85° WNW 23:55:36 52° SSW
